Satellite-Ground Cal/Val Region Overpasses Predictions

Prediction of Satellite NPP Overpassing Cal/Val Region: PacNW

Region Location: (Latitude: 10.00, Longitude: 139.50) to (Latitude: 22.70, Longitude: 165.60).

Table of predicted overpasses for the next 14.0 days since TLE Epoch: 11/27/2021
Interval Starting Time Starting Location Ending Time Ending Location
1 11/27/2021 02:41:13 ( 11.15, 159.41) 11/27/2021 02:44:29 ( 22.65, 156.67)
2 11/27/2021 15:12:47 ( 22.66, 156.89) 11/27/2021 15:16:22 ( 10.04, 153.89)
3 11/28/2021 02:21:52 ( 10.06, 164.42) 11/28/2021 02:25:27 ( 22.68, 161.42)
4 11/28/2021 14:53:44 ( 22.69, 161.66) 11/28/2021 14:57:20 ( 10.01, 158.64)
5 11/29/2021 03:44:18 ( 10.03, 143.81) 11/29/2021 03:47:53 ( 22.66, 140.81)
6 11/29/2021 14:35:38 ( 19.33, 165.59) 11/29/2021 14:38:16 ( 10.05, 163.41)
7 11/29/2021 16:16:11 ( 22.66, 141.03) 11/29/2021 16:17:58 ( 16.38, 139.51)
8 11/30/2021 03:25:16 ( 10.06, 148.56) 11/30/2021 03:28:51 ( 22.68, 145.57)
9 11/30/2021 15:57:08 ( 22.69, 145.80) 11/30/2021 16:00:44 ( 10.01, 142.79)
10 12/01/2021 03:06:12 ( 10.03, 153.33) 12/01/2021 03:09:47 ( 22.65, 150.33)
11 12/01/2021 15:38:05 ( 22.66, 150.56) 12/01/2021 15:41:40 ( 10.04, 147.56)
12 12/02/2021 02:47:10 ( 10.05, 158.09) 12/02/2021 02:50:45 ( 22.67, 155.09)
13 12/02/2021 15:19:02 ( 22.70, 155.32) 12/02/2021 15:22:38 ( 10.02, 152.31)
14 12/03/2021 02:28:06 ( 10.02, 162.85) 12/03/2021 02:31:41 ( 22.64, 159.86)
15 12/03/2021 14:59:59 ( 22.67, 160.08) 12/03/2021 15:03:34 ( 10.05, 157.08)
16 12/04/2021 02:11:31 ( 18.68, 165.59) 12/04/2021 02:12:39 ( 22.67, 164.61)
17 12/04/2021 03:50:34 ( 10.06, 142.23) 12/04/2021 03:53:50 ( 21.57, 139.51)
18 12/04/2021 14:40:57 ( 22.64, 164.83) 12/04/2021 14:44:32 ( 10.02, 161.83)
19 12/05/2021 03:31:30 ( 10.03, 147.00) 12/05/2021 03:35:05 ( 22.65, 144.00)
20 12/05/2021 16:03:23 ( 22.66, 144.22) 12/05/2021 16:06:58 ( 10.04, 141.22)
21 12/06/2021 03:12:28 ( 10.05, 151.75) 12/06/2021 03:16:03 ( 22.68, 148.75)
22 12/06/2021 15:44:20 ( 22.69, 148.99) 12/06/2021 15:47:56 ( 10.01, 145.98)
23 12/07/2021 02:53:25 ( 10.02, 156.52) 12/07/2021 02:57:00 ( 22.65, 153.52)
24 12/07/2021 15:25:17 ( 22.67, 153.74) 12/07/2021 15:28:52 ( 10.04, 150.74)
25 12/08/2021 02:34:22 ( 10.05, 161.27) 12/08/2021 02:37:57 ( 22.67, 158.28)
26 12/08/2021 15:06:14 ( 22.70, 158.51) 12/08/2021 15:09:50 ( 10.02, 155.50)
27 12/09/2021 02:15:52 ( 11.96, 165.60) 12/09/2021 02:18:54 ( 22.65, 163.04)
28 12/09/2021 03:56:49 ( 10.03, 140.66) 12/09/2021 03:58:14 ( 15.03, 139.51)
29 12/09/2021 14:47:11 ( 22.67, 163.26) 12/09/2021 14:50:46 ( 10.04, 160.27)
30 12/10/2021 03:37:45 ( 10.00, 145.43) 12/10/2021 03:41:21 ( 22.69, 142.42)
31 12/10/2021 14:31:01 ( 12.54, 165.60) 12/10/2021 14:31:44 ( 10.02, 165.02)
